Location: Unspecified
(0.0000°N, 0.0000°E)
Time: 07:36:23
(UTC+00:00)

Vanguard 1 Rocket - Pass Details

Date: 14 December 2017
Orbit: 656 x 4222 km, 34.3° (Epoch: 14 January)

Event Time Altitude Azimuth Distance (km) Brightness Sun altitude
Rises 11:47:56 0° 214° (SW) 3,064 10.4 66.7°
Reaches altitude 10° 11:50:36 10° 200° (SSW) 2,063 9.7 66.7°
Maximum altitude 11:54:19 26° 142° (SE) 1,324 9.0 66.8°
Drops below altitude 10° 11:58:29 10° 85° (E) 2,334 9.6 66.7°
Sets 12:01:43 0° 73° (ENE) 3,573 10.4 66.7°
